Location: Campbell Hill
(37.9301°N, 89.5490°W)
Time: 10:13:39
(UTC+00:00)

Cosmos 1802 Rocket - Pass Details

Date: 07 November 2025
Orbit: 953 x 1011 km, 82.9° (Epoch: 07 December)

Event Time Altitude Azimuth Distance (km) Brightness Sun altitude
Rises 23:21:03 0° 175° (S) 3,704 7.2 -6.1°
Reaches altitude 10° 23:23:35 10° 172° (S) 2,765 6.5 -6.6°
Maximum altitude 23:29:51 64° 93° (E) 1,111 4.1 -7.8°
Drops below altitude 10° 23:36:12 10° 13° (NNE) 2,798 6.1 -9.0°
Sets 23:38:46 0° 11° (N) 3,751 6.8 -9.5°
